Theta_e
306 309 312 318 325 327 329 329 328 327 325 323 323 324 324 324 324 324 325 326 326 327 327 328 328 328 328 327 326 324 324 325
304 306 306 310 320 326 327 328 329 329 329 327 326 324 324 324 324 324 325 326 327 328 328 328 328 328 327 326 324 324 323 324
304 305 306 306 308 317 324 326 328 329 330 330 330 330 328 326 325 325 326 327 327 328 328 328 328 328 327 326 323 323 322 324
304 304 305 306 307 307 307 309 316 324 327 328 330 330 330 330 329 328 327 327 328 328 328 328 328 328 328 328 324 324 322 322
304 304 306 307 308 308 309 309 309 308 308 311 318 323 326 327 329 329 330 329 329 329 329 329 328 327 326 326 323 323 321 320
304 303 305 306 307 308 308 309 308 309 309 309 309 308 310 314 319 323 326 328 329 329 329 328 326 326 325 322 321 320 319 316
303 304 304 305 306 307 307 308 308 309 309 309 309 309 310 315 319 320 322 322 323 322 321 320 319 318 317 317 316 314 314 310
305 304 304 305 306 306 306 307 308 309 309 309 309 309 310 311 314 316 315 315 314 316 315 315 316 315 314 311 309 308 307 305
304 304 304 305 305 306 306 307 307 308 308 308 308 308 308 308 308 309 309 310 310 311 310 310 310 310 309 309 306 304 302 301
303 303 302 302 303 303 304 305 305 305 305 305 305 305 305 304 303 304 305 305 306 305 306 306 307 306 304 303 300 299 297 296
300 299 299 299 301 301 300 300 299 300 301 302 303 304 303 303 304 304 303 302 303 303 302 301 302 300 299 297 295 294 293 291
297 294 294 296 298 296 295 294 295 298 299 300 300 299 301 302 302 300 300 299 299 299 297 296 295 295 294 293 293 292 291 291
291 289 291 293 295 292 290 292 295 296 297 297 297 298 299 299 298 297 296 295 294 294 293 293 292 291 291 291 291 290 290 291
288 286 287 289 290 288 288 292 294 295 295 294 295 295 295 295 294 293 292 291 291 290 289 290 290 290 290 290 290 290 289 290
285 283 282 285 286 286 289 291 292 292 291 291 291 291 292 292 291 291 290 289 289 288 288 288 288 288 289 289 288 288 287 288
282 280 280 284 285 287 288 288 289 289 288 288 288 288 288 288 288 288 287 287 287 287 287 287 287 288 288 288 288 288 287 286
279 279 279 281 282 284 286 287 288 287 286 286 286 286 286 285 285 285 285 285 286 286 286 285 285 285 286 287 287 287 286 285
275 276 277 279 280 281 283 285 285 285 285 285 285 284 284 284 283 283 284 284 285 285 284 284 284 285 286 287 287 286 285 284
273 273 275 277 278 279 281 283 283 283 283 283 283 283 283 283 282 282 282 282 283 283 282 282 283 283 284 285 285 286 285 284
271 271 273 275 275 277 279 280 281 282 281 281 282 281 281 281 281 281 281 281 281 282 282 282 283 284 284 284 284 284 283 283
Wind_Speed
5 6 16 28 33 36 38 39 44 46 44 41 41 42 43 36 37 38 40 40 42 42 43 43 46 47 47 47 48 47 48 47
2 2 3 8 23 27 30 31 28 34 35 34 36 39 40 39 40 43 43 42 44 45 46 46 46 46 44 45 43 47 45 45
3 3 4 7 8 12 22 28 30 31 34 34 36 37 38 41 42 41 42 41 46 45 45 45 44 44 45 45 43 47 44 47
2 4 4 4 4 6 9 14 18 24 27 30 34 35 36 37 38 40 41 42 41 42 43 44 44 44 44 46 45 46 46 47
0 1 1 1 0 1 3 6 9 14 18 22 25 27 30 31 32 33 36 38 39 41 43 43 42 41 41 44 45 44 42 45
3 3 3 3 4 5 6 7 8 11 13 16 16 18 20 21 24 27 29 31 33 36 37 37 37 36 36 40 43 43 41 41
6 5 3 5 7 9 10 9 8 9 10 9 9 10 12 12 11 13 16 19 18 17 19 22 24 25 27 31 34 35 35 35
6 5 5 5 7 9 8 8 8 7 7 7 7 7 7 8 9 10 10 11 12 14 16 18 19 21 22 23 26 28 28 29
4 4 2 3 4 5 5 5 5 5 5 5 6 6 5 6 6 7 7 8 10 12 14 15 15 15 17 18 19 22 24 24
9 6 4 1 1 1 1 2 2 1 2 3 4 5 4 2 4 4 4 6 8 11 13 16 16 17 15 14 16 18 18 19
11 8 5 3 2 4 5 5 6 3 1 2 3 1 0 1 2 4 6 8 9 10 11 12 13 12 11 12 12 13 13 12
12 11 8 7 7 11 9 11 7 5 3 3 3 2 1 2 3 4 5 5 6 7 8 8 9 7 7 12 12 13 14 16
15 13 12 12 11 13 14 10 7 6 6 6 6 4 2 2 4 4 4 5 6 7 8 8 6 3 4 9 9 11 15 16
17 17 17 15 13 14 11 9 9 8 10 9 7 5 4 4 4 5 5 5 7 7 8 9 6 2 6 10 8 8 11 11
18 18 18 17 16 16 12 10 9 12 12 11 9 7 5 4 4 3 3 3 4 6 6 7 5 3 6 7 7 7 10 9
17 17 18 17 17 14 11 9 12 13 12 12 11 10 8 7 6 5 4 3 3 4 4 5 6 7 10 11 9 9 8 8
20 21 15 15 16 16 15 12 12 15 14 13 12 10 9 8 6 7 8 7 5 5 6 6 5 5 3 8 9 8 7 7
19 16 15 17 19 18 17 14 16 16 14 13 12 11 10 9 9 9 7 8 9 7 7 9 9 7 3 4 6 6 8 7
18 18 19 21 22 18 16 15 15 14 13 11 10 9 8 8 8 7 8 8 7 7 10 9 7 5 2 2 4 7 9 12
23 24 23 23 21 16 14 13 14 14 13 10 10 9 9 8 7 8 8 8 8 9 9 10 9 7 4 1 6 9 11 12
Wind_Direction
247 272 232 217 212 209 211 211 214 220 221 220 223 226 229 229 228 231 234 237 240 240 242 244 244 244 243 241 243 242 245 246
206 195 185 207 218 213 214 219 220 220 222 222 226 229 231 229 231 235 239 238 240 242 244 245 245 245 241 240 239 242 242 245
151 146 168 150 170 199 221 229 231 232 231 231 233 235 234 234 235 238 239 240 245 244 244 244 245 246 247 244 240 245 242 246
106 90 97 127 170 203 217 228 231 235 238 239 239 237 238 238 241 241 241 244 245 244 244 244 245 247 250 252 248 251 248 247
260 274 113 62 85 229 267 254 248 243 241 242 243 244 247 250 249 249 248 250 251 252 253 252 251 251 253 251 250 250 251 250
218 232 249 277 289 271 275 279 270 255 251 253 255 253 252 252 253 253 253 254 255 255 253 251 252 254 255 254 253 249 250 248
217 214 230 257 277 286 289 284 277 261 259 261 258 252 248 246 246 246 246 245 248 249 258 260 259 262 267 267 263 257 252 253
179 168 197 257 290 290 281 276 269 251 240 239 245 252 249 245 241 240 248 252 256 259 265 267 267 268 270 267 263 262 262 258
163 185 215 266 280 275 266 249 228 218 228 242 243 240 247 249 245 250 258 267 271 271 272 274 276 282 283 282 274 268 266 264
170 158 147 144 311 240 94 109 141 179 241 244 248 258 256 300 327 314 305 295 280 274 282 288 289 289 290 287 276 266 269 264
125 120 113 59 89 111 83 81 61 30 325 252 237 232 74 277 281 285 287 297 296 294 293 294 290 292 292 277 262 251 251 254
112 94 74 79 99 86 73 48 30 36 38 50 56 69 279 289 298 317 321 317 315 315 309 306 306 305 268 242 241 234 231 229
103 86 76 79 92 76 56 38 45 61 76 80 74 61 19 345 348 342 334 334 330 326 325 331 332 315 258 246 259 259 254 241
103 88 75 77 80 76 54 60 65 72 70 72 85 82 72 49 30 16 3 348 335 328 332 334 336 308 209 221 242 238 239 241
100 81 69 68 68 63 60 70 79 81 77 75 80 87 85 66 66 58 26 355 342 331 331 322 302 275 219 231 248 258 252 246
95 90 76 69 69 72 79 83 86 87 81 76 75 74 69 69 58 36 24 348 347 343 329 306 300 286 256 247 250 253 254 240
90 85 83 85 78 76 77 81 83 79 69 66 65 65 64 54 44 45 33 27 9 4 2 357 330 325 254 234 247 261 254 227
101 105 103 91 76 72 73 73 72 71 65 61 60 55 50 46 47 35 37 42 49 35 23 18 8 8 357 258 249 259 208 232
103 88 78 71 63 63 73 83 78 72 71 72 71 69 71 62 48 35 32 25 24 29 16 17 1 0 336 230 223 229 229 248
85 72 67 62 53 55 62 75 91 98 84 75 78 75 67 60 50 42 35 26 9 9 21 14 15 7 10 261 230 242 249 260